[[{"header":{"parameterUnit":"m.s-1","parameterCategory":1,"la1":30.2991,"la2":30.254,"lo1":-89.0895,"lo2":-89.0444,"dy":0.0017,"dx":0.0017,"nx":28,"ny":28,"refTime":"2025-07-26T21:00:00:Z","depth":0,"parameterNumber":2,"parameterNumberName":"U-component_of_WINDS"},"data":[0,0,0,0,0,0,0,0,0,0,0,0,0,0,0,0,0,0,0,0,0,0,0,0,0,0,0,0,0,0,0,0,0,0,0,0,0,0,0,0,0,0,0,0,0,0,0,0,0,0,0,0,0,0,0,0,0,0,2.0072,2.0074,0,2.0227,2.0229,2.0231,2.0282,2.0281,2.028,2.028,2.0438,2.0443,2.0448,0,0,0,0,0,0,0,0,0,0,0,0,0,1.9817,1.9821,2.0072,2.0074,2.0076,2.0227,2.0229,2.0231,2.0282,2.0281,2.028,2.0279,2.0437,2.0442,2.0448,0,0,0,0,0,0,0,0,0,0,0,0,0,1.9946,1.9823,2.0071,2.0119,2.0125,2.0227,2.0229,2.0232,2.0282,2.0281,2.028,2.0279,2.0435,2.0442,2.0449,2.0514,0,0,2.0471,2.0474,0,0,0,0,0,0,0,0,1.9938,1.9955,2.011,2.0116,2.0123,2.0234,2.0198,2.0327,2.0282,2.0222,2.028,2.0279,2.0371,2.0384,2.0415,2.0522,2.0529,2.0472,2.0476,2.0479,2.0481,0,0,0,0,0,0,0,1.9929,1.9948,2.0133,2.0112,2.012,2.0132,2.0149,2.0222,2.0301,2.0228,2.0232,2.0249,2.0374,2.0408,2.0419,2.0531,2.0472,2.0478,2.0483,2.0485,2.0698,2.07,0,0,0,0,0,0,1.9912,1.9941,2.0128,2.0138,2.0026,2.0138,2.0157,2.0199,2.03,2.0314,2.025,2.0251,2.0396,2.041,2.0425,2.0507,2.0479,2.0486,2.049,2.0697,2.0699,2.07,0,0,0,0,0,0,1.9907,1.9929,2.0122,2.0041,2.0066,2.0143,2.0191,2.0203,2.0237,2.0317,2.0331,2.027,2.0396,2.0415,2.0492,2.0513,2.0489,2.0496,2.0696,2.0698,2.0699,2.0673,0,0,0,0,0,0,1.9899,1.9926,1.9952,2.0041,2.007,2.0187,2.0192,2.0207,2.0249,2.0252,2.0339,2.0353,2.0396,2.048,2.0499,2.0523,2.0502,2.0694,2.0696,2.0699,2.0672,2.0674,2.0675,0,0,0,0,0,1.989,1.9939,1.9953,1.9976,2.0104,2.0188,2.0205,2.0254,2.0251,2.0277,2.0329,2.035,2.0508,2.0488,2.0509,2.0536,2.0693,2.0696,2.0699,2.0671,2.0673,2.0675,0,0,0,0,0,0,1.985,1.9951,1.9969,2.0047,2.0109,2.0196,2.0231,2.0254,2.0318,2.0318,2.0376,2.0395,2.0467,2.051,2.0485,2.0604,2.0601,2.0609,2.0574,2.0576,2.0577,2.0565,2.0508,0,0,0,0,0,1.9851,1.991,1.9995,2.0056,2.0086,2.0153,2.0191,2.0224,2.029,2.0316,2.0373,2.0436,2.05,2.054,2.0604,2.0679,2.0698,2.0707,2.0709,2.071,2.0715,2.0757,2.0762,2.071,2.0709,2.0709,0,0,1.9852,1.9915,1.9949,2.005,2.0101,2.0161,2.0175,2.0238,2.0283,2.0325,2.0401,2.0446,2.0519,2.0595,2.0632,2.0633,2.0734,2.0713,2.0713,2.0718,2.076,2.0765,2.077,2.0711,2.0711,2.0711,0,0,1.9885,1.9939,1.9996,2.0047,2.0124,2.0169,2.0182,2.0266,2.0297,2.0375,2.0408,2.0462,2.0571,2.0622,2.0662,2.0714,2.0736,2.0733,2.074,2.078,2.0784,2.0788,2.0806,2.0812,2.0738,2.0738,2.0738,0,1.9877,1.9969,2.0021,2.0083,2.0126,2.0168,2.0225,2.0272,2.0366,2.0395,2.0395,2.0532,2.0585,2.0673,2.0685,2.0717,2.0733,2.0723,2.078,2.0784,2.0789,2.0806,2.0813,2.0737,2.0737,2.0737,2.0737,0,1.9955,2.0018,2.0054,2.0144,2.0192,2.0251,2.0311,2.0353,2.0382,2.0426,2.0503,2.0568,2.0645,2.0668,2.0697,2.076,2.0759,2.0768,2.0767,2.0792,2.0809,2.0816,2.0736,2.0736,2.0736,2.0737,0,0,1.9967,2.0085,2.0097,2.0138,2.0227,2.0277,2.0337,2.0413,2.0447,2.051,2.0562,2.0653,2.0663,2.0708,2.0743,2.0778,2.0814,2.0784,2.0786,2.0786,2.0887,2.0879,2.0886,2.0829,2.0831,2.0832,2.0881,0,2.001,2.0121,2.017,2.0258,2.0316,2.0357,2.041,2.0469,2.0512,2.0568,2.0615,2.0678,2.0686,2.0714,2.0751,2.0802,2.0835,2.0799,2.0877,2.088,2.0857,2.0895,2.0886,2.0929,2.0888,2.0889,2.089,0,2.0076,2.014,2.0234,2.0315,2.0342,2.0388,2.0461,2.0514,2.0582,2.0611,2.0661,2.0694,2.0759,2.0753,2.0843,2.0817,2.0852,2.0882,2.0885,2.0893,2.0886,2.0904,2.0944,2.095,2.0902,2.0901,2.09,0,2.0074,2.0184,2.0254,2.0288,2.0385,2.0416,2.0458,2.0526,2.0567,2.0631,2.0659,2.0728,2.0766,2.082,2.087,2.0862,2.0955,2.0954,2.098,2.0978,2.0997,2.0995,2.1042,2.102,2.102,2.102,2.102,0,2.0117,2.0173,2.0254,2.0297,2.036,2.0416,2.0477,2.0521,2.0581,2.0633,2.0673,2.072,2.0785,2.0841,2.0881,2.0949,2.0966,2.099,2.1,2.0986,2.0983,2.1009,2.1007,2.1022,2.1022,2.1021,2.1021,0,2.0125,2.0182,2.0261,2.0347,2.0369,2.0412,2.0485,2.0528,2.0572,2.0638,2.0656,2.0726,2.0794,2.085,2.0939,2.0966,2.1036,2.1048,2.1013,2.1018,2.104,2.1037,2.1105,2.1117,2.1088,2.1088,2.1088,0,2.0149,2.0192,2.0283,2.032,2.0362,2.0422,2.0465,2.0521,2.0564,2.0646,2.0678,2.0749,2.0809,2.0915,2.0973,2.1041,2.1055,2.1074,2.1065,2.105,2.1054,2.1051,2.1055,2.1075,2.1075,2.1075,2.1075,0,2.0184,2.021,2.0271,2.0341,2.0392,2.045,2.0509,2.0537,2.0604,2.0651,2.0721,2.0767,2.0858,2.0927,2.1001,2.1044,2.107,2.1077,2.1087,2.1073,2.105,2.1062,2.1014,2.1075,2.1075,2.1075,2.1075,2.1075,2.02,2.024,2.031,2.0376,2.0427,2.0481,2.0526,2.0576,2.0635,2.0714,2.0743,2.0815,2.0882,2.0984,2.1027,2.1083,2.1086,2.11,2.1104,2.1106,2.1103,2.1042,2.1097,2.1097,2.1097,2.1097,2.1097,0,2.0236,2.0283,2.0344,2.0425,2.0477,2.0498,2.0565,2.0606,2.0669,2.0729,2.0787,2.0867,2.0934,2.0998,2.1069,2.1101,2.1115,2.1118,2.1116,2.1125,2.1097,2.1081,2.1106,2.1106,2.1106,2.1105,2.1105,2.1105,2.0261,2.0331,2.0365,2.046,2.0506,2.0577,2.0613,2.0663,2.0711,2.0799,2.0855,2.0896,2.0958,2.1033,2.1096,2.1113,2.1137,2.1136,2.1156,2.1129,2.1127,2.1125,2.1111,2.1141,2.1141,2.1179,2.1179,2.118]},{"header":{"parameterUnit":"m.s-1","parameterCategory":1,"la1":30.2991,"la2":30.254,"lo1":-89.0895,"lo2":-89.0444,"dy":0.0017,"dx":0.0017,"nx":28,"ny":28,"refTime":"2025-07-26T21:00:00:Z","depth":0,"parameterNumber":3,"parameterNumberName":"V-component_of_WINDS"},"data":[0,0,0,0,0,0,0,0,0,0,0,0,0,0,0,0,0,0,0,0,0,0,0,0,0,0,0,0,0,0,0,0,0,0,0,0,0,0,0,0,0,0,0,0,0,0,0,0,0,0,0,0,0,0,0,0,0,0,3.5941,3.594,0,3.5889,3.5889,3.5888,3.5849,3.5849,3.5848,3.5848,3.5789,3.5788,3.5786,0,0,0,0,0,0,0,0,0,0,0,0,0,3.6001,3.6,3.5941,3.594,3.594,3.5889,3.5889,3.5888,3.5849,3.5849,3.5848,3.5848,3.5789,3.5788,3.5786,0,0,0,0,0,0,0,0,0,0,0,0,0,3.5964,3.5999,3.5941,3.5914,3.5911,3.5889,3.5889,3.5888,3.5849,3.5849,3.5848,3.5848,3.579,3.5788,3.5786,3.5785,0,0,3.578,3.5779,0,0,0,0,0,0,0,0,3.5966,3.5962,3.5919,3.5916,3.5913,3.5875,3.5888,3.5853,3.5849,3.5873,3.5848,3.5847,3.5818,3.5813,3.5805,3.5782,3.5779,3.578,3.5779,3.5778,3.5778,0,0,0,0,0,0,0,3.5969,3.5964,3.592,3.5918,3.5915,3.5903,3.5897,3.5881,3.5848,3.587,3.5868,3.5862,3.5816,3.5806,3.5803,3.5778,3.578,3.5778,3.5777,3.5777,3.5751,3.5752,0,0,0,0,0,0,3.5976,3.5966,3.5922,3.5919,3.5939,3.5903,3.5896,3.5888,3.5848,3.5842,3.5863,3.5861,3.581,3.5805,3.5801,3.5796,3.5778,3.5776,3.5775,3.5751,3.5751,3.5752,0,0,0,0,0,0,3.5978,3.5973,3.5924,3.5942,3.5935,3.5902,3.5893,3.5887,3.5878,3.5843,3.5836,3.586,3.5809,3.5803,3.5789,3.5793,3.5776,3.5774,3.575,3.5751,3.5751,3.5787,0,0,0,0,0,0,3.598,3.5974,3.5974,3.5942,3.5934,3.5915,3.5893,3.5886,3.5875,3.5872,3.5838,3.5832,3.5808,3.5792,3.5787,3.579,3.5772,3.575,3.575,3.5751,3.5785,3.5789,3.5792,0,0,0,0,0,3.5982,3.5985,3.5974,3.5969,3.5934,3.5916,3.5911,3.5886,3.5876,3.5875,3.5853,3.5833,3.5794,3.5791,3.5785,3.5788,3.5749,3.575,3.5751,3.5784,3.5788,3.5792,0,0,0,0,0,0,3.6015,3.598,3.5968,3.5961,3.5942,3.5909,3.5907,3.5891,3.5873,3.587,3.5838,3.583,3.5819,3.5802,3.58,3.5784,3.5769,3.5769,3.5796,3.58,3.5803,3.5807,3.5771,0,0,0,0,0,3.6023,3.6012,3.5981,3.5978,3.5969,3.594,3.5931,3.5914,3.5892,3.5883,3.5859,3.5837,3.582,3.5809,3.5791,3.5783,3.5774,3.5782,3.5785,3.5788,3.5788,3.5782,3.5785,3.5755,3.5755,3.5755,0,0,3.6036,3.6015,3.601,3.5984,3.5967,3.5956,3.5933,3.5922,3.5913,3.588,3.5866,3.5848,3.5821,3.581,3.5804,3.5795,3.5794,3.5789,3.5792,3.579,3.5783,3.5786,3.5789,3.5756,3.5756,3.5756,0,0,3.6055,3.6039,3.6034,3.6018,3.5994,3.5975,3.5974,3.5944,3.5931,3.5917,3.5893,3.588,3.5851,3.5833,3.582,3.5833,3.5813,3.5828,3.5844,3.5839,3.5841,3.5843,3.5847,3.5849,3.5828,3.5828,3.5828,0,3.6074,3.6058,3.6033,3.6024,3.6013,3.5985,3.5979,3.5964,3.5935,3.5927,3.5918,3.5882,3.5861,3.5846,3.5849,3.584,3.5836,3.5831,3.5843,3.5845,3.5846,3.5849,3.5851,3.583,3.583,3.5829,3.5829,0,3.6082,3.6071,3.607,3.6045,3.6033,3.6025,3.5999,3.5989,3.5973,3.5955,3.594,3.5915,3.5892,3.5887,3.587,3.5868,3.5864,3.585,3.5833,3.5851,3.5854,3.5855,3.5832,3.5832,3.5831,3.5831,0,0,3.6119,3.6082,3.6082,3.607,3.6041,3.6031,3.6022,3.6001,3.5994,3.5974,3.5965,3.5942,3.5929,3.5914,3.5895,3.589,3.5901,3.5876,3.5875,3.5881,3.5897,3.5907,3.5909,3.5889,3.5889,3.5889,3.5899,0,3.6133,3.6117,3.6095,3.6086,3.6075,3.6049,3.6041,3.6021,3.6004,3.599,3.597,3.5954,3.5939,3.5929,3.5924,3.5901,3.5904,3.59,3.5878,3.5877,3.5885,3.5911,3.5921,3.5932,3.59,3.59,3.59,0,3.6146,3.6131,3.6121,3.6094,3.6088,3.6082,3.6061,3.6049,3.6026,3.6014,3.5998,3.5978,3.5965,3.5952,3.5933,3.5931,3.592,3.5908,3.5907,3.5904,3.5889,3.5907,3.5935,3.5936,3.5902,3.5901,3.5901,0,3.6174,3.615,3.6141,3.6132,3.61,3.6096,3.6082,3.6059,3.6048,3.603,3.6022,3.6001,3.599,3.5973,3.5947,3.594,3.5931,3.5915,3.5918,3.5919,3.5917,3.5917,3.5943,3.5912,3.5912,3.5912,3.5911,0,3.6191,3.6186,3.6153,3.6148,3.6141,3.6115,3.6108,3.6092,3.6072,3.6061,3.6037,3.6027,3.5994,3.598,3.5959,3.5946,3.5941,3.5929,3.5924,3.5931,3.5932,3.5923,3.5921,3.5912,3.5912,3.5912,3.5912,0,3.622,3.6198,3.6187,3.6159,3.6151,3.6147,3.6122,3.6115,3.6096,3.6083,3.6079,3.6049,3.6031,3.6004,3.5977,3.5963,3.5953,3.5945,3.5962,3.5958,3.5963,3.5962,3.5983,3.5984,3.5953,3.5953,3.5953,0,3.6232,3.6228,3.62,3.6192,3.618,3.6167,3.6157,3.6131,3.6121,3.6095,3.609,3.6071,3.6054,3.6027,3.6001,3.598,3.5971,3.5979,3.5967,3.5975,3.597,3.597,3.5969,3.5982,3.5982,3.5982,3.5983,0,3.6255,3.6245,3.6232,3.6215,3.6203,3.6188,3.6172,3.6166,3.6137,3.6126,3.6109,3.6096,3.607,3.605,3.6027,3.601,3.5991,3.5987,3.5987,3.5994,3.6003,3.5997,3.5969,3.5986,3.5986,3.5986,3.5986,3.5985,3.6275,3.627,3.625,3.6236,3.6222,3.6207,3.6199,3.6181,3.6166,3.6145,3.613,3.6113,3.609,3.6056,3.6041,3.6026,3.6018,3.6017,3.6017,3.6017,3.6019,3.6007,3.6022,3.6021,3.6021,3.6021,3.6021,0,3.6297,3.6283,3.627,3.6249,3.6238,3.6224,3.6205,3.6196,3.6182,3.6163,3.6148,3.6128,3.6109,3.6083,3.6062,3.6055,3.6046,3.605,3.605,3.6046,3.6028,3.6031,3.6058,3.6058,3.6058,3.6058,3.6058,3.6058,3.6306,3.6297,3.6285,3.6268,3.6253,3.6239,3.6229,3.6215,3.62,3.6179,3.6164,3.6149,3.6126,3.6103,3.6085,3.6078,3.607,3.6077,3.6067,3.6051,3.6047,3.6044,3.6046,3.6076,3.6076,3.6086,3.6086,3.6086]}]]